CUTE-1 (CO-55) 1 27844U 03031E 25348.90843721 .00000404 00000+0 19435-3 0 9990 2 27844 98.6765 354.7835 0009671 7.2612 352.8706 14.24180995165448 CUBESAT XI-IV (CO-57) 1 27848U 03031J 25348.94629569 .00000342 00000+0 16957-3 0 9997 2 27848 98.6791 354.6809 0009884 24.7467 335.4184 14.23488795165163 CUBESAT XI-V 1 28895U 05043F 25348.88892126 .00001644 00000+0 27035-3 0 9994 2 28895 98.2719 136.0029 0015334 71.9673 288.3203 14.71909380 74638 CUTE-1.7+APD II (CO-65) 1 32785U 08021C 25348.96259405 .00004540 00000+0 30676-3 0 9995 2 32785 97.8076 322.0825 0007901 301.4613 58.5841 15.07073337957425 CANX-2 1 32790U 08021H 25348.89655776 .00002946 00000+0 21893-3 0 9993 2 32790 97.8424 320.5670 0009566 313.2733 46.7693 15.03789222957092 SEEDS II (CO-66) 1 32791U 08021J 25348.93722540 .00011612 00000+0 46340-3 0 9997 2 32791 97.7439 334.1587 0001555 194.6003 165.5189 15.25338161959130 SWISSCUBE 1 35932U 09051B 25348.68723126 .00001477 00000+0 30453-3 0 9990 2 35932 98.4143 248.3025 0008071 69.2140 290.9925 14.61964982862197 BEESAT-1 1 35933U 09051C 25348.94738887 .00001201 00000+0 25330-3 0 9993 2 35933 98.4076 248.5747 0006546 80.4419 279.7521 14.61282956862275 ITUPSAT1 1 35935U 09051E 25348.71027863 .00001258 00000+0 27201-3 0 9996 2 35935 98.4165 247.7108 0008733 89.7995 270.4206 14.60037938861813 TISAT 1 1 36799U 10035E 25348.74774018 .00016586 00000+0 69638-3 0 9993 2 36799 98.0596 275.2851 0003546 128.8534 231.3019 15.23541121839545 AEROCUBE 4.5A 1 38767U 12048K 25348.88353215 .00038301 00000+0 64660-3 0 9992 2 38767 64.6424 312.0917 0066454 231.1575 128.3623 15.48919023343806 STRAND-1 1 39090U 13009E 25348.96737414 .00000388 00000+0 14502-3 0 9990 2 39090 98.3821 168.8018 0009674 64.8703 295.3487 14.37006796670600 BRITE-AUSTRIA 1 39091U 13009F 25348.76424165 .00000283 00000+0 11107-3 0 9997 2 39091 98.3887 167.8325 0011305 72.8430 287.3994 14.36437143670576 NEE-01 PEGASO 1 39151U 13018B 25348.90367735 .00002586 00000+0 25826-3 0 9990 2 39151 98.0954 122.4442 0013757 54.0268 306.2224 14.92364864683208 POPACS 1 1 39268U 13055D 25348.62482918 .00223973 15703-4 63678-3 0 9993 2 39268 80.9542 209.1630 0112933 39.4611 321.4807 15.83212915643872 POPACS 2 1 39269U 13055E 25348.44971651 .00019749 00000+0 35603-3 0 9991 2 39269 80.9950 354.5947 0447916 64.6092 300.0781 14.83488189635745 POPACS 3 1 39270U 13055F 25348.55597119 .00009102 00000+0 22647-3 0 9994 2 39270 81.0047 68.7751 0566998 270.7232 82.9063 14.51887419611726 ZACUBE-1 (TSHEPISOSAT) 1 39417U 13066B 25348.86108675 .00003675 00000+0 30205-3 0 9996 2 39417 97.8058 305.4096 0041968 140.2301 220.2011 14.99108242653090 WNISAT-1 1 39423U 13066H 25348.92910204 .00001045 00000+0 19849-3 0 9999 2 39423 97.6929 146.5012 0165463 92.3015 269.7141 14.57646818639883 TRITON-1 1 39427U 13066M 25349.00652534 .00002795 00000+0 34561-3 0 9993 2 39427 97.8314 258.0695 0093265 113.6890 247.4144 14.80505354646824 GOMX-1 1 39430U 13066Q 25348.80942339 .00003378 00000+0 51957-3 0 9995 2 39430 97.6591 195.8056 0129585 309.9177 49.0697 14.68599620642847 CUBEBUG-2 (LO-74) 1 39440U 13066AA 25348.81821099 .00004015 00000+0 38942-3 0 9994 2 39440 97.8707 292.4871 0057921 278.8390 80.6273 14.91997356649485 NEE-02 KRYSAOR 1 39441U 13066AB 25348.79747540 .00002827 00000+0 32043-3 0 9995 2 39441 97.8730 284.6404 0066361 315.2985 44.2892 14.85612928648812 FUNCUBE-1 (AO-73) 1 39444U 13066AE 25348.84766109 .00006311 00000+0 42942-3 0 9997 2 39444 97.8063 312.1518 0040622 108.8629 251.7009 15.05998371651888 UWE-3 1 39446U 13066AG 25348.82924447 .00004377 00000+0 39481-3 0 9992 2 39446 97.8478 299.1806 0049600 212.1766 147.6425 14.95127461650011 BRITE-CA1 (TORONTO) 1 40020U 14033L 25348.88312067 .00001314 00000+0 20609-3 0 9992 2 40020 97.9487 116.5691 0079991 146.2561 214.3775 14.72218273615098 DUCHIFAT-1 1 40021U 14033M 25348.59402336 .00030793 00000+0 75170-3 0 9996 2 40021 98.0790 20.6026 0007367 28.5341 331.6305 15.40783466627138 NANOSATC-BR1 1 40024U 14033Q 25348.75990180 .00013840 00000+0 56216-3 0 9990 2 40024 98.0904 0.5772 0005829 99.4547 260.7348 15.24697458625818 QB50P1 1 40025U 14033R 25348.93231305 .00007280 00000+0 39877-3 0 9993 2 40025 98.0968 342.6668 0010673 128.3040 231.9151 15.14502344625108 QB50P2 1 40032U 14033Y 25348.93066737 .00005392 00000+0 31911-3 0 9999 2 40032 98.0636 329.9110 0009945 83.7784 276.4577 15.11858798624791 PERSEUS-M2 1 40037U 14033AD 25348.95541981 .00001461 00000+0 14005-3 0 9993 2 40037 97.9753 291.1030 0011537 183.3734 176.7410 14.94708279623253 PERSEUS-M1 1 40039U 14033AF 25348.80596552 .00001520 00000+0 14521-3 0 9992 2 40039 97.9459 285.2436 0011465 182.1312 177.9861 14.94766247623084 POLYITAN-1 1 40042U 14033AJ 25348.91286198 .00012882 00000+0 50737-3 0 9992 2 40042 98.1076 353.6690 0010390 73.5742 286.6635 15.25716139625421 TIGRISAT 1 40043U 14033AK 25348.92648117 .00001727 00000+0 20884-3 0 9993 2 40043 97.7556 138.5739 0049376 320.2745 39.4857 14.84135913618280 AEROCUBE 6A 1 40045U 14033AM 25348.92396218 .00005468 00000+0 49377-3 0 9991 2 40045 97.7031 153.3676 0039656 272.5218 87.1463 14.95303281619055 AEROCUBE 6B 1 40046U 14033AN 25348.42868878 .00008230 00000+0 71652-3 0 9994 2 40046 97.7032 152.3168 0037863 266.4589 93.2302 14.96625506619095 CANX-4 1 40055U 14034C 25348.57812317 .00001461 00000+0 19675-3 0 9994 2 40055 98.3358 211.8548 0011665 242.4068 117.5959 14.80793898617206 CANX-5 1 40056U 14034D 25348.57863874 .00001455 00000+0 19592-3 0 9990 2 40056 98.3361 211.8881 0011671 242.7185 117.2837 14.80810000608017 UKUBE-1 1 40074U 14037F 25348.97316701 .00008063 00000+0 50358-3 0 9996 2 40074 98.4139 328.5240 0003233 72.8518 287.3062 15.09782568620723 BRITE-PL2 (HEWELIUSZ) 1 40119U 14049B 25348.54253686 .00001696 00000+0 16573-3 0 9990 2 40119 97.8993 94.4161 0014405 7.3953 352.7476 14.93667317613874 AEROCUBE 5C 1 40965U 15058B 25348.97053680 .00003464 00000+0 31318-3 0 9998 2 40965 64.7671 115.1510 0137516 135.3010 225.9286 14.90191085338193 AEROCUBE 7 1 40966U 15058C 25348.72928472 .00005357 00000+0 44035-3 0 9995 2 40966 64.7630 101.8412 0127803 135.0007 226.1549 14.93999191338386 FOX-1A (AO-85) 1 40967U 15058D 25348.68830430 .00004173 00000+0 38177-3 0 9992 2 40967 64.7745 131.8039 0134651 129.2500 232.0652 14.89679942 86075 SINOD-D 1 1 40968U 15058E 25348.72658342 .00005829 00000+0 48186-3 0 9998 2 40968 64.7751 115.8063 0123029 127.3349 233.9051 14.94113100 89081 SNAP-3 ALICE 1 40970U 15058G 25348.48658269 .00036178 00000+0 10579-2 0 9997 2 40970 64.7615 8.3396 0044127 118.9784 241.5784 15.34116829 88340 LMRST-SAT 1 40971U 15058H 25348.73232630 .00003945 00000+0 36289-3 0 9999 2 40971 64.7751 127.6695 0137104 131.0345 230.2715 14.89334454 86078 SNAP-3 EDDIE 1 40972U 15058J 25348.46798549 .00038390 00000+0 10902-2 0 9991 2 40972 64.7537 0.2637 0047234 123.1191 237.4489 15.34863505 90468 PROPCUBE 3 1 40973U 15058K 25348.73571047 .00005016 00000+0 42513-3 0 9997 2 40973 64.7688 108.1787 0130192 133.0686 228.1415 14.92717906 87250 BISONSAT 1 40974U 15058L 25348.59330066 .00009697 00000+0 53414-3 0 9997 2 40974 64.7626 48.2976 0086686 128.6190 232.2735 15.11293063 87677 SNAP-3 JIMI 1 40975U 15058M 25348.65137797 .00006496 00000+0 47005-3 0 9994 2 40975 64.7668 82.5795 0112523 131.2249 229.8634 14.99844707 86524 PROPCUBE 1 (FLORA) 1 40976U 15058N 25348.85669658 .00003313 00000+0 31871-3 0 9992 2 40976 64.7735 146.0175 0136525 133.1328 228.1298 14.88000386 88823 SINOD-D 3 1 40977U 15058P 25348.79649702 .00005528 00000+0 47776-3 0 9995 2 40977 64.7720 130.9019 0125065 131.8593 229.3276 14.92324497 87222 HORYU-4 1 41340U 16012D 25348.93603008 .00033196 00000+0 55110-3 0 9999 2 41340 30.9945 294.8989 0006942 254.5788 105.4095 15.50812136541896 RAVAN 1 41849U 16067B 25348.60484185 .00025885 00000+0 66076-3 0 9999 2 41849 98.0165 213.9211 0006075 306.3481 53.7202 15.39466330499167 CELTEE 1 1 41850U 16067C 25348.84323218 .00005752 00000+0 29254-3 0 9994 2 41850 98.0880 197.8486 0002025 107.2773 252.8681 15.17281520497905 OPTICUBE 04 1 41851U 16067D 25348.49336464 .00003666 00000+0 23844-3 0 9994 2 41851 98.0828 186.0477 0016702 26.4176 333.7899 15.08568208497310 AEROCUBE 8D 1 41852U 16067E 25348.58805271 .00007414 00000+0 33675-3 0 9990 2 41852 98.0903 199.8440 0005060 60.1814 299.9922 15.21096608497973 AEROCUBE 8C 1 41853U 16067F 25348.83747525 .00007094 00000+0 32057-3 0 9993 2 41853 98.0764 197.5942 0005601 353.2726 6.8432 15.21291435498001 CORVUS BC2 1 42846U 17042X 25348.89913538 .00002477 00000+0 17961-3 0 9992 2 42846 97.3836 152.8297 0014275 27.4396 332.7582 15.04736696459337 CORVUS BC1 1 42847U 17042Y 25348.91941952 .00003102 00000+0 22247-3 0 9996 2 42847 97.3881 153.5299 0012435 7.5490 352.5922 15.04986088459361 MAKERSAT 0 1 43016U 17073D 25348.63006788 .00017044 00000+0 57198-3 0 9990 2 43016 97.4892 225.5342 0125915 204.6461 154.8727 15.23555399438280 SIRION PATHFINDER-2 1 43759U 18099B 25348.73053955 .00005053 00000+0 29481-3 0 9993 2 43759 97.4548 37.1572 0008261 209.0268 151.0504 15.12362043384723 CORVUS BC4 1 43767U 18099K 25348.63384808 .00003985 00000+0 24515-3 0 9990 2 43767 97.4355 31.9670 0007058 280.1541 79.8892 15.10571028384524 SPACEBEE-7 1 43816U 18099BL 25348.77066896 .00087863 00000+0 11223-2 0 9992 2 43816 97.4717 64.5422 0002984 161.0266 199.1102 15.58961565385849 SHIELDS 1 1 43850U 18104B 25348.51000846 .00123684 00000+0 50553-3 0 9994 2 43850 85.0064 262.4302 0008111 101.6967 258.5220 15.85714664390930 M2 PATHFINDER 1 45727U 20037E 25348.44426236 .00003383 00000+0 25219-3 0 9998 2 45727 97.8136 172.6944 0013647 61.3677 298.8919 15.03517110297722 NETSAT-4 1 46504U 20068U 25348.91111497 .00012289 00000+0 34341-3 0 9999 2 46504 97.8596 338.3526 0004282 254.3310 105.7460 15.36850265287404 NETSAT-3 1 46505U 20068V 25348.89026241 .00011947 00000+0 34955-3 0 9990 2 46505 97.8615 336.8453 0003996 279.8024 80.2766 15.35418863287335 NETSAT-1 1 46506U 20068W 25348.95589822 .00009886 00000+0 35197-3 0 9995 2 46506 97.8667 333.1894 0004124 306.6425 53.4434 15.29169645287091 NETSAT-2 1 46507U 20068X 25348.90989925 .00013980 00000+0 38413-3 0 9993 2 46507 97.8605 337.8282 0002833 311.0949 49.0049 15.37345183287345 WILDTRACKCUBE-SIMBA 1 47941U 21022K 25348.95669481 .00072990 00000+0 67208-3 0 9994 2 47941 97.4053 259.7457 0006161 21.7073 338.4448 15.67403715262438 GREENCUBE (IO-117) 1 53109U 22080E 25348.44384664 -.00000003 00000+0 00000+0 0 9993 2 53109 70.1577 2.4881 0009040 327.2145 32.7953 6.42583234 80191 SITRO-AIS 5 (KATYS) 1 57176U 23091L 25348.94791494 .00008154 00000+0 33337-3 0 9999 2 57176 97.5349 46.4731 0013463 37.3174 322.8995 15.24541249136221 SITRO-AIS 6 (CHIRKIN) 1 57192U 23091AC 25348.93173562 .00005179 00000+0 22279-3 0 9993 2 57192 97.5351 46.3196 0013594 39.6775 320.5453 15.23001951136216 SITRO-AIS 8 (ANOKHIN) 1 57193U 23091AD 25348.98037809 .00012538 00000+0 48235-3 0 9999 2 57193 97.5344 47.4570 0012649 35.3246 324.8828 15.26460628136297 SITRO-AIS 7 (FARTUSHNIY) 1 57194U 23091AE 25348.96977381 .00005153 00000+0 22302-3 0 9998 2 57194 97.5351 46.2578 0013507 40.3355 319.8880 15.22797142136216 SITRO-AIS 10 (BURDAEV) 1 57199U 23091AK 25348.95173170 .00014998 00000+0 50273-3 0 9991 2 57199 97.5359 50.8839 0008286 18.6109 341.5433 15.30982140136504 SITRO-AIS 9 (SHCHUKIN) 1 57201U 23091AM 25348.93147755 .00012839 00000+0 43480-3 0 9997 2 57201 97.5357 50.7070 0008301 18.9361 341.2187 15.30686438136495 SITRO-AIS 12 (SMIRENNIY) 1 57204U 23091AQ 25348.95278045 .00012354 00000+0 41566-3 0 9994 2 57204 97.5367 51.0958 0008038 12.7137 347.4304 15.30910097136511 SITRO-AIS 11 (SHEFFER) 1 57208U 23091AU 25348.94289800 .00012980 00000+0 43288-3 0 9996 2 57208 97.5366 51.2377 0007959 12.5434 347.6003 15.31183704136527 SITRO-AIS 25 1 59066U 24039R 25348.95290463 .00005694 00000+0 46397-3 0 9999 2 59066 95.3952 108.6022 0148048 251.2686 107.2424 14.91451975 97243 SITRO-AIS 26 1 59067U 24039S 25348.93115804 .00005529 00000+0 45222-3 0 9996 2 59067 95.3951 108.5192 0148416 251.7631 106.7393 14.91280481 97234 SITRO-AIS 27 1 59068U 24039T 25348.95025484 .00006403 00000+0 51928-3 0 9995 2 59068 95.3953 108.7246 0147493 250.6678 107.8548 14.91651341 97255 SITRO-AIS 28 1 59071U 24039U 25348.93211525 .00005628 00000+0 45634-3 0 9995 2 59071 95.3951 108.7497 0147469 250.6257 107.8977 14.91695823 97250 GRBBETA 1 60237U 24128C 25348.87782176 .00003793 00000+0 27346-3 0 9999 2 60237 61.9889 142.0757 0056185 96.9867 263.7620 15.04780460 78519 OOV-CUBE (TUBSAT-30) 1 60240U 24128F 25348.81112922 .00002648 00000+0 21196-3 0 9998 2 60240 61.9939 147.9729 0058438 94.6752 266.1016 15.01622968 78413 ROBUSTA-3A (MEDITERRAN*) 1 60243U 24128J 25348.72170913 .00006847 00000+0 43771-3 0 9993 2 60243 61.9859 138.9935 0056177 91.2694 269.4836 15.08252628 78563 LASARSAT 1 62391U 24247Q 25348.03942901 .00026006 00000+0 76652-3 0 9992 2 62391 44.9764 213.4521 0002210 154.3380 205.7615 15.34618811 54760 CROCUBE 1 62394U 24247T 25347.98877522 .00027422 00000+0 79041-3 0 9992 2 62394 44.9739 213.0130 0003473 146.9160 213.1943 15.35292983 54768